This is the latest recevied weather packets stored in our database for station/object KB1JLI. If no packets are shown the sender has not sent any weather packets the latest 10 day(s).
| Time | Temp. | Humidity | Pressure | Rain* | Wind** | Luminosity | Snow |
|---|---|---|---|---|---|---|---|
| 1777477166 | 9.44° C | 84% | 1016.9 hPa | 0 mm | - | 232 W/m² | - |
| 1777476862 | 9.44° C | 83% | 1017.2 hPa | 0 mm | - | 236 W/m² | - |
| 1777476560 | 9.44° C | 84% | 1017.3 hPa | 0 mm | - | 196 W/m² | - |
| 1777476256 | 9.44° C | 82% | 1017.4 hPa | 0 mm | - | 239 W/m² | - |
| 1777475951 | 9.44° C | 84% | 1017.4 hPa | 0 mm | - | 303 W/m² | - |
| 1777475648 | 9.44° C | 83% | 1017.4 hPa | 0 mm | - | 262 W/m² | - |
| 1777475345 | 9.44° C | 85% | 1017.7 hPa | 0 mm | - | 266 W/m² | - |
| 1777475039 | 8.89° C | 85% | 1017.8 hPa | 0 mm | - | 264 W/m² | - |
| 1777474736 | 8.89° C | 86% | 1017.7 hPa | 0 mm | - | 231 W/m² | - |
| 1777474433 | 8.89° C | 87% | 1017.9 hPa | 0 mm | - | 223 W/m² | - |
| 1777474129 | 8.33° C | 89% | 1018.2 hPa | 0 mm | - | 209 W/m² | - |
| 1777473827 | 8.33° C | 88% | 1018.6 hPa | 0 mm | - | 161 W/m² | - |
| 1777473524 | 8.89° C | 88% | 1018.4 hPa | 0 mm | - | 194 W/m² | - |
| 1777473219 | 8.33° C | 89% | 1018.4 hPa | 0 mm | - | 310 W/m² | - |
| 1777472916 | 8.33° C | 90% | 1018.4 hPa | 0 mm | - | 150 W/m² | - |
| 1777472613 | 8.33° C | 91% | 1018.3 hPa | 0 mm | - | 201 W/m² | - |
| 1777472309 | 7.78° C | 92% | 1018.6 hPa | 0 mm | - | 190 W/m² | - |
| 1777472007 | 7.78° C | 92% | 1018.7 hPa | 0 mm | - | 147 W/m² | - |
| 1777471702 | 7.78° C | 93% | 1018.6 hPa | 0 mm | - | 156 W/m² | - |
| 1777471399 | 7.78° C | 94% | 1018.4 hPa | 0 mm | - | 175 W/m² | - |
| 1777471096 | 7.78° C | 94% | 1018.5 hPa | 0 mm | - | 139 W/m² | - |
| 1777470793 | 7.78° C | 94% | 1018.4 hPa | 0 mm | - | 165 W/m² | - |
| 1777470489 | 7.78° C | 94% | 1018.5 hPa | 0 mm | - | 121 W/m² | - |
| 1777470185 | 7.22° C | 94% | 1018.3 hPa | 0 mm | - | 96 W/m² | - |
| 1777469881 | 7.78° C | 94% | 1018.5 hPa | 0 mm | - | 82 W/m² | - |
* Rain latest hour (hover to see other rain measurements)
** Current wind speed in m/s (hover to see current wind gust speed)